Torna al catalogo

CZ-6A DEB

AttivoPO
NORAD 61469·DEBRIS·🇨🇳 China

Lanciato Aug 6, 2024 da Taiyuan Satellite Launch Center

Loading…

Prossimi Passaggi (prossime 24 ore)

TLE

AggiornatoSource: Space-Track

Epoca: Sep 14, 2026, 05:28 UTC

1 61469U 24140AAB 26257.22837295  .00006576  00000-0  79497-3 0  9990
2 61469  90.0459 356.5239 0122104 191.7534 168.0835 14.78385500110798

Traccia CZ-6A DEB in tempo reale con AllMySat

Download on the App Store